Location: St Paul
(44.9440°N, 93.0930°W)
Time: 12:47:27
(UTC-05:00)

OTV 5 (USA 277) - Visible Passes

Search period start: 21 June 2018 00:00
Search period end: 01 July 2018 00:00
Orbit: 313 x 320 km, 54.5° (Epoch: 19 June)

Date Brightness Start Highest point End Pass type
(mag) Time Alt. Az. Time Alt. Az. Time Alt. Az.
21 Jun ? 00:02:37 10° NNW 00:03:37 11° N 00:04:36 10° NNE visible
21 Jun ? 01:36:27 10° NNW 01:38:41 22° NNE 01:40:26 13° ENE visible
21 Jun ? 03:10:31 10° WNW 03:11:09 15° WNW 03:11:09 15° WNW visible
21 Jun ? 22:41:51 10° NW 22:43:11 13° N 22:44:31 10° NNE visible
22 Jun ? 00:16:59 10° NNW 00:18:24 13° N 00:19:48 10° NE visible
22 Jun ? 01:50:39 10° NW 01:52:38 34° N 01:52:38 34° N visible
22 Jun ? 22:57:00 10° NNW 22:57:58 11° N 22:58:57 10° NNE visible
23 Jun ? 00:31:09 10° NNW 00:33:08 18° NNE 00:34:38 12° ENE visible
23 Jun ? 02:05:01 10° NW 02:05:27 14° WNW 02:05:27 14° WNW visible
23 Jun ? 23:11:37 10° NNW 23:12:46 12° N 23:13:55 10° NNE visible
24 Jun ? 00:45:19 10° NW 00:47:42 29° NNE 00:47:42 29° NNE visible
24 Jun ? 21:51:14 10° NNW 21:52:20 12° N 21:53:27 10° NNE visible
24 Jun ? 23:25:51 10° NNW 23:27:31 15° NNE 23:29:13 10° NE visible
25 Jun ? 00:59:35 10° NW 01:00:55 25° NW 01:00:55 25° NW visible
25 Jun ? 22:06:09 10° NNW 22:07:08 11° N 22:08:07 10° NNE visible
25 Jun ? 23:40:01 10° NNW 23:42:13 22° NNE 23:43:24 17° ENE visible
26 Jun ? 01:14:03 10° WNW 01:14:14 11° WNW 01:14:14 11° WNW visible
26 Jun ? 22:20:31 10° NNW 22:21:55 13° N 22:23:19 10° NE visible
26 Jun ? 23:54:12 10° NW 23:56:47 40° NNE 23:56:47 40° NNE visible
27 Jun ? 22:34:42 10° NNW 22:36:39 18° NNE 22:38:36 10° ENE visible
28 Jun ? 00:08:33 10° NW 00:10:15 34° WNW 00:10:15 34° WNW visible
28 Jun ? 22:48:52 10° NW 22:51:17 28° NNE 22:52:54 16° E visible
29 Jun ? 00:23:10 10° WNW 00:23:45 14° W 00:23:45 14° W visible
29 Jun ? 23:03:07 10° NW 23:05:48 62° NNE 23:06:27 43° E visible
30 Jun ? 21:43:33 10° NNW 21:45:45 21° NNE 21:47:56 10° ENE visible
30 Jun ? 23:17:35 10° WNW 23:20:04 47° SW 23:20:04 47° SW visible
